Location: Newark
(49.9828°N, 3.1606°E)
Time: 01:04:15
(UTC+00:00)

Envisat - Pass Details

Date: 27 January 2020
Orbit: 764 x 766 km, 98.1° (Epoch: 25 February)

Event Time Altitude Azimuth Distance (km) Brightness Sun altitude
Rises 04:56:48 0° 31° (NNE) 3,244 6.6 -24.2°
Reaches altitude 10° 05:00:42 10° 61° (ENE) 2,310 6.3 -23.6°
Maximum altitude 05:02:44 12° 85° (E) 2,151 6.4 -23.3°
Drops below altitude 10° 05:04:45 10° 108° (ESE) 2,303 6.5 -22.9°
Sets 05:08:36 0° 138° (SE) 3,221 6.9 -22.3°
